Weather History for K40B - January, 2013

Change the Weather History Date:

Friday, January 11, 2013

  Actual Average Record
Temperature  
Mean Temperature 14 °F -  
Max Temperature 28 °F 17 °F 37 °F (2000)
Min Temperature -1 °F -4 °F -25 °F (1999)
Degree Days  
Heating Degree Days 52    
Moisture  
Dew Point 10 °F    
Average Humidity 74    
Maximum Humidity 92    
Minimum Humidity 57    
Precipitation  
Precipitation 0.02 in - - ()
Sea Level Pressure  
Sea Level Pressure 30.43 in    
Wind  
Wind Speed 1 mph (East)    
Max Wind Speed 9 mph    
Max Gust Speed 16 mph    
Averages and records for this station are not official NWS values.
T = Trace of Precipitation, MM = Missing Value Source: NWS Daily Summary

Daily Weather History Graph

Daily Weather History Graph

Search for Another Location

Airport or City:

Trip Planner

Search our weather history database for the weather conditions in past years. The results will help you decide how hot, cold, wet, or windy it might be!

Date:

Astronomy

Jan. 11, 2013 Rise Set
Actual Time 7:20 AM EST 4:12 PM EST
Civil Twilight 6:45 AM EST 4:46 PM EST
Nautical Twilight 6:08 AM EST 5:24 PM EST
Astronomical Twilight 5:31 AM EST 6:00 PM EST
Moon 6:47 AM EST (1/11) 4:30 PM EST (1/11)
Length of Visible Light 10h 00m
Length of Day
8h 52m
Waning Crescent, 0% of the Moon is Illuminated
Jan 11
Waning Crescent
Jan 11
New
Jan 18
First Quarter
Jan 26
Full
Feb 3
Last Quarter

Hourly Weather History & Observations

Time (EST) Temp. Windchill Dew Point Humidity Pressure Visibility Wind Dir Wind Speed Gust Speed Precip Events Conditions
12:25 AM 13.3 °F - 11.3 °F 92% 30.50 in - Calm Calm - N/A   Unknown
1:25 AM 9.7 °F - 7.7 °F 92% 30.54 in - Calm Calm - N/A   Unknown
2:25 AM 4.8 °F - 2.1 °F 89% 30.57 in - Calm Calm - N/A   Unknown
3:25 AM 4.3 °F - 2.3 °F 91% 30.57 in - Calm Calm - 0.00 in   Unknown
4:25 AM 1.6 °F - -0.8 °F 90% 30.54 in - Calm Calm - N/A   Unknown
5:25 AM -0.8 °F -8.7 °F -3.8 °F 87% 30.54 in - Variable 3.5 mph - N/A   Unknown
6:25 AM -1.3 °F - -4.5 °F 86% 30.56 in - Calm Calm - N/A   Unknown
7:25 AM -1.1 °F - -3.8 °F 88% 30.56 in - Calm Calm - 0.00 in   Unknown
8:26 AM 0.3 °F - -2.9 °F 86% 30.58 in - Calm Calm - N/A   Unknown
9:25 AM 9.3 °F - 6.8 °F 89% 30.58 in - Calm Calm - 0.01 in   Unknown
10:25 AM 21.9 °F - 12.4 °F 67% 30.56 in - Calm Calm - 0.01 in   Unknown
11:25 AM 27.3 °F - 15.1 °F 60% 30.51 in - Calm Calm - N/A   Unknown
12:26 PM 26.2 °F 20.7 °F 14.5 °F 61% 30.44 in - Variable 4.6 mph - N/A   Unknown
1:25 PM 27.3 °F 20.9 °F 13.8 °F 57% 30.41 in - Variable 5.8 mph - N/A   Unknown
2:25 PM 28.2 °F 23.1 °F 14.5 °F 57% 30.40 in - Variable 4.6 mph - N/A   Unknown
3:25 PM 28.2 °F - 16.2 °F 61% 30.39 in - Calm Calm - N/A   Unknown
4:25 PM 27.9 °F 22.6 °F 17.4 °F 65% 30.34 in - Variable 4.6 mph - N/A   Unknown
5:25 PM 27.7 °F 23.8 °F 16.9 °F 64% 30.32 in - Variable 3.5 mph - N/A   Unknown
6:25 PM 27.5 °F - 16.3 °F 63% 30.30 in - Calm Calm - 0.00 in   Unknown
7:25 PM 27.3 °F 22.0 °F 16.7 °F 64% 30.27 in - Variable 4.6 mph - N/A   Unknown
8:25 PM 27.3 °F 23.4 °F 17.2 °F 66% 30.26 in - Variable 3.5 mph 15.0 mph N/A   Unknown
9:25 PM 27.5 °F 18.6 °F 16.2 °F 62% 30.22 in - East 9.2 mph - N/A   Unknown
10:25 PM 27.5 °F 20.2 °F 17.1 °F 65% 30.21 in - Variable 6.9 mph - N/A   Unknown
11:25 PM 27.7 °F 23.8 °F 18.9 °F 69% 30.21 in - Variable 3.5 mph 16.1 mph N/A   Unknown